Weather History for Manteo, NC

Change the Weather History Date:

Wednesday, January 29, 2014

  Actual Average Record
Temperature  
Mean Temperature 25 °F -  
Max Temperature 28 °F 48 °F 75 °F (1975)
Min Temperature 22 °F 35 °F 17 °F (1977)
Degree Days  
Heating Degree Days 40    
Moisture  
Dew Point 16 °F    
Average Humidity 75    
Maximum Humidity 96    
Minimum Humidity 43    
Precipitation  
Precipitation 0.00 in - - ()
Sea Level Pressure  
Sea Level Pressure 30.23 in    
Wind  
Wind Speed 16 mph (North)    
Max Wind Speed 25 mph    
Max Gust Speed 31 mph    
Visibility 7 miles    
Events Snow    
Averages and records for this station are not official NWS values.
T = Trace of Precipitation, MM = Missing Value Source: NWS Daily Summary

Daily Weather History Graph

Daily Weather History Graph

Search for Another Location

Airport:

Trip Planner

Search our weather history database for the weather conditions in past years. The results will help you decide how hot, cold, wet, or windy it might be!

Date:

Astronomy

Jan. 29, 2014 Rise Set
Actual Time 7:05 AM EST 5:26 PM EST
Civil Twilight 6:38 AM EST 5:53 PM EST
Nautical Twilight 6:07 AM EST 6:24 PM EST
Astronomical Twilight 5:37 AM EST 6:54 PM EST
Moon 5:39 AM EST (1/29) 4:23 PM EST (1/29)
Length of Visible Light 11h 15m
Length of Day
10h 21m
Waning Crescent, 2% of the Moon is Illuminated
Jan 29
Waning Crescent
Jan 30
New
Feb 6
First Quarter
Feb 14
Full
Feb 22
Last Quarter

Hourly Weather History & Observations

Time (EST) Temp. Windchill Dew Point Humidity Pressure Visibility Wind Dir Wind Speed Gust Speed Precip Events Conditions
12:15 AM 28.8 °F 16.6 °F 27.3 °F 94% 30.08 in 3.0 mi NNE 17.3 mph 29.9 mph N/A Snow Light Snow
12:35 AM 28.4 °F 16.2 °F 27.1 °F 95% 30.07 in 2.0 mi North 17.3 mph 29.9 mph N/A Snow Light Snow
12:55 AM 28.2 °F 15.9 °F 27.1 °F 96% 30.08 in 1.8 mi North 17.3 mph 23.0 mph N/A Snow Light Snow
1:15 AM 27.3 °F 14.0 °F 26.1 °F 95% 30.08 in 1.2 mi North 19.6 mph 26.5 mph N/A Snow Light Snow
1:35 AM 25.3 °F 11.8 °F 23.9 °F 94% 30.09 in 1.2 mi North 18.4 mph 27.6 mph N/A Snow Light Snow
1:55 AM 24.6 °F 9.7 °F 23.0 °F 94% 30.08 in 1.2 mi North 21.9 mph 28.8 mph N/A Snow Light Snow
2:15 AM 23.9 °F 10.3 °F 22.6 °F 95% 30.10 in 1.5 mi North 17.3 mph 27.6 mph N/A Snow Light Snow
2:35 AM 23.9 °F 8.8 °F 22.1 °F 93% 30.11 in 1.8 mi North 21.9 mph 31.1 mph N/A Snow Light Snow
2:55 AM 24.1 °F 8.0 °F 22.5 °F 94% 30.10 in 2.0 mi North 25.3 mph 31.1 mph N/A Snow Light Snow
3:15 AM 24.3 °F 10.0 °F 22.6 °F 94% 30.08 in 2.0 mi North 19.6 mph 24.2 mph N/A Snow Light Snow
3:35 AM 24.4 °F 12.4 °F 23.0 °F 94% 30.08 in 1.5 mi North 13.8 mph 21.9 mph N/A Snow Light Snow
3:55 AM 25.0 °F 12.2 °F 23.9 °F 96% 30.09 in 1.5 mi North 16.1 mph 24.2 mph N/A Snow Light Snow
4:15 AM 24.6 °F 10.5 °F 23.0 °F 94% 30.09 in 1.2 mi North 19.6 mph 26.5 mph N/A Snow Light Snow
4:35 AM 24.8 °F 11.1 °F 23.5 °F 95% 30.08 in 1.5 mi North 18.4 mph 24.2 mph N/A Snow Light Snow
4:55 AM 24.8 °F 12.4 °F 23.5 °F 95% 30.07 in 2.0 mi North 15.0 mph 23.0 mph N/A Snow Light Snow
5:15 AM 25.5 °F 13.3 °F 23.9 °F 94% 30.09 in 2.5 mi North 15.0 mph 19.6 mph N/A Snow Light Snow
5:35 AM 25.3 °F 13.1 °F 23.7 °F 94% 30.10 in 1.5 mi North 15.0 mph - N/A Snow Light Snow
5:55 AM 24.8 °F 12.4 °F 23.5 °F 95% 30.10 in 1.5 mi North 15.0 mph 25.3 mph N/A Snow Light Snow
6:15 AM 24.8 °F 12.4 °F 23.0 °F 93% 30.11 in 2.0 mi North 15.0 mph 23.0 mph N/A Snow Light Snow
6:35 AM 24.4 °F 10.2 °F 23.0 °F 94% 30.14 in 1.2 mi North 19.6 mph 25.3 mph N/A Snow Light Snow
6:55 AM 23.9 °F 10.3 °F 22.3 °F 94% 30.14 in 1.0 mi North 17.3 mph 26.5 mph N/A Snow Light Snow
7:15 AM 23.7 °F 9.7 °F 22.1 °F 94% 30.16 in 1.5 mi North 18.4 mph 26.5 mph N/A Snow Light Snow
7:35 AM 23.9 °F 9.5 °F 21.2 °F 89% 30.16 in 3.0 mi North 19.6 mph 26.5 mph N/A Snow Light Snow
7:55 AM 23.9 °F 9.9 °F 21.2 °F 89% 30.15 in 5.0 mi North 18.4 mph 23.0 mph N/A Snow Light Snow
8:15 AM 23.9 °F 10.3 °F 21.4 °F 90% 30.20 in 4.0 mi North 17.3 mph 27.6 mph N/A Snow Light Snow
8:35 AM 23.9 °F 11.2 °F 20.3 °F 86% 30.18 in 4.0 mi North 15.0 mph 25.3 mph N/A Snow Light Snow
8:55 AM 23.9 °F 10.3 °F 21.0 °F 89% 30.21 in 4.0 mi North 17.3 mph 25.3 mph N/A Snow Light Snow
9:15 AM 23.9 °F 11.2 °F 21.0 °F 89% 30.22 in 5.0 mi North 15.0 mph 28.8 mph N/A Snow Light Snow
9:35 AM 24.3 °F 10.8 °F 21.0 °F 87% 30.24 in 5.0 mi North 17.3 mph 25.3 mph N/A Snow Light Snow
9:55 AM 24.3 °F 10.4 °F 20.3 °F 85% 30.24 in 7.0 mi North 18.4 mph 26.5 mph N/A   Overcast
10:15 AM 24.4 °F 11.0 °F 19.9 °F 83% 30.25 in 7.0 mi North 17.3 mph 23.0 mph N/A   Overcast
10:35 AM 24.6 °F 11.7 °F 20.3 °F 84% 30.25 in 10.0 mi North 16.1 mph 26.5 mph N/A   Overcast
10:55 AM 24.6 °F 13.2 °F 20.3 °F 84% 30.26 in 7.0 mi North 12.7 mph 25.3 mph N/A   Overcast
11:15 AM 24.4 °F 11.9 °F 20.8 °F 86% 30.27 in 10.0 mi North 15.0 mph 20.7 mph N/A   Overcast
11:35 AM 24.1 °F 11.5 °F 20.7 °F 87% 30.27 in 10.0 mi North 15.0 mph 21.9 mph N/A   Overcast
11:55 AM 23.9 °F 12.3 °F 20.3 °F 86% 30.26 in 10.0 mi North 12.7 mph 21.9 mph N/A   Overcast
12:15 PM 23.7 °F 11.0 °F 19.4 °F 84% 30.25 in 10.0 mi North 15.0 mph 25.3 mph N/A   Overcast
12:35 PM 23.2 °F 10.3 °F 18.7 °F 83% 30.24 in 10.0 mi North 15.0 mph 20.7 mph N/A   Overcast
12:55 PM 23.0 °F 9.6 °F 17.6 °F 80% 30.26 in 10.0 mi North 16.1 mph 26.5 mph N/A   Overcast
1:15 PM 23.0 °F 9.6 °F 17.4 °F 79% 30.26 in 10.0 mi North 16.1 mph 24.2 mph N/A   Overcast
1:35 PM 23.9 °F 10.3 °F 17.6 °F 77% 30.26 in 10.0 mi North 17.3 mph 23.0 mph N/A   Scattered Clouds
1:55 PM 24.4 °F 11.9 °F 17.1 °F 73% 30.27 in 10.0 mi North 15.0 mph 20.7 mph N/A   Clear
2:15 PM 23.9 °F 11.7 °F 16.2 °F 72% 30.26 in 10.0 mi North 13.8 mph 23.0 mph N/A   Clear
2:35 PM 23.9 °F 12.3 °F 15.1 °F 69% 30.27 in 10.0 mi North 12.7 mph 19.6 mph N/A   Clear
2:55 PM 23.7 °F 12.6 °F 14.2 °F 67% 30.27 in 10.0 mi North 11.5 mph 19.6 mph N/A   Clear
3:15 PM 23.7 °F 11.0 °F 13.3 °F 64% 30.29 in 10.0 mi North 15.0 mph 20.7 mph N/A   Clear
3:35 PM 23.2 °F 10.8 °F 12.6 °F 64% 30.29 in 10.0 mi North 13.8 mph 18.4 mph N/A   Clear
3:55 PM 23.0 °F 11.1 °F 12.4 °F 64% 30.27 in 10.0 mi North 12.7 mph 20.7 mph N/A   Clear
4:15 PM 23.0 °F 11.7 °F 12.2 °F 63% 30.29 in 10.0 mi North 11.5 mph 18.4 mph N/A   Clear
4:35 PM 22.6 °F 10.7 °F 11.3 °F 62% 30.30 in 10.0 mi North 12.7 mph 17.3 mph N/A   Clear
4:55 PM 22.6 °F 11.9 °F 10.4 °F 59% 30.31 in 10.0 mi North 10.4 mph - N/A   Clear
5:15 PM 22.6 °F 12.6 °F 9.9 °F 58% 30.32 in 10.0 mi NNW 9.2 mph - N/A   Clear
5:35 PM 22.5 °F 14.1 °F 9.5 °F 58% 30.32 in 10.0 mi North 6.9 mph - N/A   Clear
5:55 PM 22.5 °F 13.2 °F 8.4 °F 55% 30.31 in 10.0 mi North 8.1 mph - N/A   Clear
6:15 PM 22.5 °F 13.2 °F 7.7 °F 53% 30.31 in 10.0 mi North 8.1 mph - N/A   Clear
6:35 PM 22.5 °F 13.2 °F 6.4 °F 50% 30.32 in 10.0 mi North 8.1 mph - N/A   Clear
6:55 PM 22.6 °F 13.4 °F 6.6 °F 50% 30.34 in 10.0 mi North 8.1 mph - N/A   Clear
7:15 PM 22.6 °F 15.3 °F 6.4 °F 50% 30.34 in 10.0 mi North 5.8 mph - N/A   Clear
7:35 PM 22.6 °F 14.3 °F 6.1 °F 49% 30.35 in 10.0 mi North 6.9 mph - N/A   Clear
7:55 PM 23.0 °F 13.1 °F 3.6 °F 43% 30.34 in 10.0 mi North 9.2 mph - N/A   Clear
8:15 PM 22.8 °F 12.9 °F 3.6 °F 44% 30.35 in 10.0 mi North 9.2 mph - N/A   Clear
8:35 PM 23.0 °F 13.1 °F 3.4 °F 43% 30.35 in 10.0 mi North 9.2 mph - N/A   Clear
8:55 PM 23.0 °F 13.9 °F 3.9 °F 44% 30.36 in 10.0 mi North 8.1 mph - N/A   Clear
9:15 PM 22.8 °F 15.5 °F 5.4 °F 47% 30.36 in 10.0 mi North 5.8 mph - N/A   Clear
9:35 PM 22.6 °F 13.4 °F 4.5 °F 46% 30.37 in 10.0 mi North 8.1 mph - N/A   Clear
9:55 PM 23.0 °F 15.8 °F 3.6 °F 43% 30.37 in 10.0 mi North 5.8 mph - N/A   Clear
10:15 PM 23.0 °F 14.7 °F 4.6 °F 45% 30.39 in 10.0 mi North 6.9 mph - N/A   Clear
10:35 PM 22.8 °F 14.5 °F 4.3 °F 45% 30.39 in 10.0 mi North 6.9 mph - N/A   Clear
10:55 PM 22.5 °F 13.2 °F 4.8 °F 47% 30.39 in 10.0 mi North 8.1 mph - N/A   Clear
11:15 PM 23.0 °F 14.7 °F 6.8 °F 50% 30.39 in 10.0 mi North 6.9 mph - N/A   Clear
11:35 PM 23.0 °F 15.8 °F 7.5 °F 52% 30.38 in 10.0 mi North 5.8 mph - N/A   Clear
11:55 PM 23.2 °F 15.0 °F 8.6 °F 54% 30.37 in 10.0 mi North 6.9 mph - N/A   Clear